View from above orbital plane
|
View from above satellite
|
Ground track
|
The orbit data is extracted from the following two-line orbital elements,
1 20663U 90055A 21055.70215129 .00000229 00000-0 39917-4 0 9992
2 20663 62.7949 45.9031 0052747 347.9910 11.9921 14.92194979660994
Epoch (UTC): | 24 February 2021 16:51:05 |
Eccentricity: | 0.0052747 |
inclination: | 62.7949° |
perigee height: | 554 km |
apogee height: | 628 km |
right ascension of ascending node: | 45.9031° |
argument of perigee: | 347.9910° |
revolutions per day: | 14.92194979 |
mean anomaly at epoch: | 11.9921° |
orbit number at epoch: | 66099 |
The dashed part of the orbit path shows where the satellite is in the earth's shadow,
|
|